Voltar ao catálogo

STARLINK-35697

AtivoComunicaçõesVLEO
NORAD 66539·PAYLOAD·🇺🇸 United States

Lançado Nov 19, 2025 de Cape Canaveral Space Force Station

Loading…

Próximas Passagens (próximas 24 horas)

TLE

AtualizadoSource: CelesTrak SupGP

Época: Sep 15, 2026, 02:45 UTC

1 66539C 25265Z   26258.11506944  .00013424  00000+0  48620-3 0  2586
2 66539  42.9998 288.0464 0001369 262.2732 141.5312 15.27572789    18

Acompanhe STARLINK-35697 em tempo real com AllMySat

Download on the App Store